Temperature
20 20 20 20 24 25 25 24 24 23 23 22 22 22 22 21 21 20 17 17 17 17 17 17 17 17 17 17 17 17 17 17 17 17 17 17 17 17 17 17 17 17 17 17 17 17 17 17 18
20 20 20 22 25 25 24 24 24 23 22 21 21 21 21 20 18 18 17 16 17 16 16 16 17 17 17 17 17 17 17 17 17 17 17 17 17 17 17 17 17 17 17 17 17 17 17 17 17
20 20 21 25 25 25 24 24 23 22 21 22 21 21 20 19 18 17 17 16 16 16 16 16 17 17 17 17 17 17 17 17 16 16 16 16 16 16 16 16 16 16 16 16 17 17 17 17 17
20 21 23 25 24 24 24 24 23 22 22 21 21 21 19 18 18 17 16 16 16 16 16 16 17 17 16 16 16 16 16 16 16 16 16 16 16 16 16 16 16 16 16 16 16 16 16 17 17
20 23 24 24 24 24 24 23 23 23 22 21 21 20 19 17 17 17 16 16 16 16 16 16 16 16 16 16 16 16 16 16 15 15 15 15 15 15 15 16 15 15 15 16 16 16 16 16 17
22 24 25 24 23 23 23 22 23 23 22 21 21 20 18 17 17 17 16 16 16 16 16 16 16 16 16 16 16 16 15 15 15 15 15 15 15 15 15 15 15 15 15 16 16 16 16 16 16
23 24 24 24 23 23 23 22 22 23 22 21 20 20 18 17 17 16 16 16 16 16 16 16 16 16 16 16 16 15 15 15 15 15 15 15 15 15 15 15 15 15 15 16 16 16 16 16 16
21 24 24 24 23 23 22 21 21 22 21 20 20 20 19 17 17 16 16 16 16 16 16 16 16 16 16 16 16 16 15 15 15 15 15 15 15 15 15 15 15 15 16 16 16 16 16 16 16
21 24 24 24 23 23 22 22 21 20 20 20 19 20 19 17 17 17 17 17 16 16 16 16 16 16 16 16 15 15 16 15 15 15 15 15 15 15 15 15 15 15 15 15 16 16 16 16 16
22 24 24 23 24 23 22 22 21 21 21 20 19 18 18 17 17 17 17 17 17 17 17 17 16 16 16 16 16 15 15 15 15 15 15 15 15 15 15 15 15 15 15 15 15 16 16 16 16
23 23 23 23 22 22 22 21 21 21 21 20 19 18 18 18 18 18 18 18 18 17 17 17 17 16 16 16 16 16 16 15 15 15 15 15 15 15 15 15 15 15 15 15 15 16 16 16 16
23 22 22 22 21 22 22 21 21 21 21 20 19 19 18 18 18 18 18 18 17 17 17 17 17 17 16 16 16 16 16 16 16 15 15 15 15 15 15 15 15 15 15 15 15 15 16 16 16
23 22 21 21 21 21 21 21 21 20 20 19 19 18 18 19 19 18 18 18 18 17 17 17 17 17 16 16 16 16 16 16 16 15 15 15 16 16 16 16 15 15 15 15 15 16 16 16 16
22 22 21 21 21 21 21 21 21 20 19 19 19 19 19 19 18 18 18 18 18 17 17 17 17 16 16 16 16 16 16 16 15 15 15 15 15 15 15 15 15 15 15 15 15 15 15 16 16
21 22 22 21 21 21 21 21 21 20 19 19 19 19 19 18 18 19 18 18 18 18 18 17 17 17 16 16 16 16 16 16 15 15 15 15 15 15 15 15 15 15 15 15 15 15 15 15 15
22 22 21 21 21 21 21 21 21 19 20 20 19 19 19 18 18 19 18 18 18 18 18 17 17 17 16 16 16 16 16 15 15 15 15 15 15 15 15 15 15 15 15 15 15 15 15 15 15
22 22 22 21 21 21 21 21 21 19 20 20 19 19 19 19 19 19 18 18 18 18 18 17 17 17 16 16 16 16 15 15 15 15 15 15 15 15 15 15 15 15 15 15 15 15 15 15 15
21 22 21 21 21 21 21 21 21 20 20 20 20 19 19 19 19 19 18 18 18 18 17 17 17 17 16 16 16 15 15 15 15 15 15 15 15 15 15 15 15 15 15 15 15 15 15 15 15
22 21 21 21 22 21 21 21 21 20 20 20 20 20 20 19 19 19 18 18 18 18 17 17 17 17 16 16 16 15 15 15 15 14 14 14 14 14 15 15 15 15 15 15 15 15 15 15 15
21 21 21 21 21 22 21 21 22 21 21 20 20 20 20 20 19 18 18 18 18 18 17 17 17 17 16 16 16 15 15 15 15 15 14 14 14 14 14 15 15 15 15 15 15 15 15 15 15
21 21 21 21 21 21 21 21 21 21 20 20 20 20 20 20 19 19 19 18 18 18 18 17 17 17 16 16 16 16 15 15 15 14 14 15 15 15 15 15 15 15 15 15 15 14 15 15 15
21 21 21 21 21 21 21 21 22 22 21 21 20 20 20 20 20 19 19 18 18 18 18 18 17 17 16 16 16 16 15 15 15 15 14 15 15 15 15 15 15 15 15 15 15 15 14 15 15
21 20 20 20 20 20 21 21 22 22 21 21 21 20 20 20 20 19 19 19 18 18 18 18 17 17 17 16 16 16 15 15 15 15 14 14 15 15 15 15 15 15 15 15 15 15 15 15 15
20 20 20 20 20 20 21 21 22 22 22 22 22 21 20 20 20 19 19 18 18 18 18 18 17 17 17 17 16 16 16 15 15 15 15 15 15 15 15 15 15 15 15 15 15 15 15 15 15
20 20 20 20 20 20 21 21 22 23 23 23 22 22 21 20 20 19 19 19 19 18 18 18 18 17 17 17 16 16 16 16 15 15 15 15 15 15 15 15 15 15 15 15 15 15 15 15 15
21 21 20 20 20 21 21 21 23 23 22 22 22 22 21 20 20 19 19 19 19 19 19 18 18 17 17 17 16 16 16 16 16 15 15 15 15 15 15 15 15 15 15 15 15 15 15 15 15
21 21 21 21 20 20 21 22 23 23 22 22 22 21 21 20 20 19 19 19 19 19 19 18 18 18 17 17 17 16 16 16 16 15 15 15 15 15 15 15 15 15 15 15 15 15 15 15 15
21 21 20 20 19 20 21 22 22 22 22 22 22 21 21 20 20 19 19 19 19 19 19 18 18 18 17 17 17 16 16 16 16 16 15 15 15 15 15 15 15 15 15 15 15 15 15 15 15
20 20 20 20 20 20 21 22 23 23 23 22 22 21 21 20 20 19 19 19 19 19 19 19 18 18 18 17 17 17 16 16 16 16 16 15 15 15 15 15 15 15 15 14 15 14 14 14 14
21 21 21 20 20 20 21 22 23 23 22 22 22 21 21 20 20 19 19 19 19 19 19 19 18 18 18 17 17 17 17 16 16 16 16 16 15 15 15 15 15 15 15 14 14 14 14 14 14
Wind_Speed
4 1 2 3 3 2 2 3 2 4 4 5 5 4 5 5 4 5 5 5 6 6 7 8 8 9 10 10 10 10 10 10 11 10 10 9 9 9 9 9 9 8 8 8 8 7 7 7 7
2 1 3 3 3 2 3 3 4 5 6 6 5 5 6 6 6 6 5 6 6 7 7 8 9 10 10 10 11 11 10 10 10 10 10 10 9 9 9 8 8 8 7 7 6 7 7 6 6
1 3 3 2 2 0 4 5 7 8 6 4 4 5 5 5 5 4 6 7 7 7 8 10 9 10 11 11 11 11 10 10 10 10 9 9 9 8 8 8 8 7 7 7 6 6 5 5 5
2 3 3 2 2 3 3 6 7 8 5 4 5 6 5 5 4 7 8 8 8 8 9 11 9 11 11 11 11 11 11 11 10 10 9 9 8 8 8 7 7 7 6 6 6 5 5 5 5
2 3 3 3 3 3 4 5 5 5 4 4 5 7 7 6 9 11 9 8 8 9 10 12 11 11 11 11 11 11 11 11 10 10 9 9 9 8 8 7 6 6 6 6 6 5 5 5 5
2 3 4 4 5 5 5 5 5 5 6 6 6 8 7 8 10 10 9 9 9 9 9 11 12 11 11 10 10 10 10 10 9 9 8 8 8 7 7 6 5 5 5 5 5 5 5 5 5
2 2 3 3 6 5 5 4 4 5 7 6 5 7 8 9 9 9 9 9 9 9 9 9 10 11 11 10 10 10 10 9 8 8 7 7 6 6 6 5 5 5 5 5 5 5 5 5 4
1 2 3 4 6 5 6 5 4 4 6 6 4 6 9 11 10 10 9 9 9 8 8 8 9 9 9 11 11 9 9 8 7 7 6 5 5 5 4 4 5 5 5 5 5 5 5 5 5
2 4 4 4 5 5 7 6 4 4 8 5 3 6 12 14 12 11 9 9 8 8 7 7 7 8 8 8 8 7 7 6 4 5 5 1 3 4 4 8 6 5 5 5 5 5 5 4 6
2 3 2 2 2 5 7 6 6 6 8 7 8 12 15 14 12 11 10 9 9 8 7 7 7 7 6 6 5 5 5 5 4 5 5 4 5 4 4 6 5 5 4 4 5 3 3 3 4
1 1 3 3 3 6 7 6 5 5 5 8 13 16 15 14 12 10 9 8 8 7 7 6 6 6 5 4 4 4 4 4 5 5 5 4 4 3 3 3 4 4 2 4 5 3 3 4 4
2 3 3 4 4 5 6 6 5 3 4 8 13 16 15 13 11 10 9 8 7 6 6 6 5 5 5 4 4 3 4 4 4 4 5 4 4 3 4 3 4 3 3 3 3 3 4 5 6
4 4 4 5 5 5 6 6 5 5 7 11 14 14 13 12 10 9 8 8 7 7 6 5 4 4 4 4 2 3 4 4 5 4 4 4 3 3 3 3 3 3 3 3 3 4 5 5 6
4 5 5 5 5 4 5 5 4 6 10 12 13 13 12 11 10 9 8 8 7 7 7 6 4 4 3 3 3 4 4 4 4 4 5 5 4 4 3 4 3 3 3 4 3 5 5 5 6
5 6 4 3 4 4 4 4 4 7 11 12 13 12 11 10 9 9 8 7 8 7 7 6 4 4 4 4 4 4 4 4 4 4 4 5 5 4 4 3 4 4 4 4 4 5 5 5 6
4 5 4 3 3 3 5 4 6 9 11 12 12 12 11 9 9 8 8 7 7 7 6 6 5 5 5 4 4 4 5 5 4 4 4 5 5 5 5 4 4 4 3 4 4 3 5 5 5
5 6 5 5 4 4 5 4 7 9 11 11 12 11 11 10 9 8 7 7 6 6 6 7 6 6 5 5 5 5 5 5 5 5 5 5 6 5 5 4 4 4 4 3 3 3 4 5 5
5 5 5 5 5 5 6 5 8 10 11 11 11 11 11 10 10 9 7 6 6 6 6 7 7 6 6 5 5 5 5 5 5 5 5 6 5 5 5 4 4 4 4 3 4 4 4 4 4
3 5 4 3 3 5 6 7 9 11 12 12 12 12 12 11 10 9 8 7 7 7 7 7 7 7 6 5 4 4 4 4 4 5 6 5 5 5 5 4 5 4 4 4 4 4 5 5 4
5 5 4 3 2 3 5 7 8 11 13 13 13 13 13 12 11 10 9 9 9 9 8 8 7 7 6 4 4 4 4 4 4 4 5 5 6 6 5 5 4 4 4 4 4 3 3 4 2
5 5 4 3 2 3 4 6 9 10 11 12 12 13 14 14 14 14 12 10 9 9 9 8 8 7 7 6 4 4 4 4 4 4 4 5 5 6 6 5 5 4 3 3 3 3 3 3 2
4 3 4 4 5 4 5 5 8 11 13 14 15 15 15 14 14 14 13 12 11 10 9 8 9 8 7 7 5 5 3 3 4 3 4 5 5 6 5 5 5 4 4 3 3 2 2 1 2
1 2 3 4 5 5 7 6 5 10 13 16 17 17 16 16 15 14 14 12 11 10 9 8 9 8 7 6 6 5 4 4 4 4 4 4 5 5 6 5 4 4 4 4 4 3 2 1 1
5 4 3 3 4 6 7 7 4 8 13 14 17 18 18 17 16 15 13 11 10 10 9 9 9 8 7 7 7 5 5 5 5 5 4 4 4 4 5 5 4 4 4 4 3 3 3 3 2
6 5 3 4 5 4 3 6 4 3 7 11 14 17 18 17 16 16 15 14 12 12 11 10 10 9 8 8 7 6 6 5 5 5 4 4 4 4 4 4 4 4 4 4 4 3 3 3 3
6 6 4 3 3 2 4 5 2 1 3 7 11 14 18 18 17 16 16 15 14 13 12 12 11 10 9 8 7 6 6 4 4 4 4 4 3 4 4 5 5 5 5 4 4 3 4 3 4
5 5 4 4 3 4 4 3 2 3 4 5 8 12 16 18 17 16 16 15 15 15 13 13 12 11 10 9 8 7 7 5 5 5 4 4 4 4 4 4 5 5 4 4 4 4 5 5 5
3 3 3 4 3 3 3 3 2 4 4 6 8 11 14 16 17 17 16 15 14 14 13 12 12 12 11 10 8 7 7 6 5 5 5 5 5 4 4 4 4 5 4 5 4 5 4 5 5
6 6 5 4 4 3 2 1 1 1 2 4 6 9 12 15 16 16 15 15 14 13 13 13 12 12 11 10 9 9 8 7 7 5 5 5 5 5 4 3 4 4 4 4 4 4 4 5 5
8 8 7 5 4 4 3 1 3 1 1 2 4 7 10 13 15 15 15 15 14 14 13 13 13 12 11 11 10 9 8 8 8 7 6 6 5 4 4 4 4 4 4 4 4 4 4 5 5
Wind_Direction
299 236 224 234 230 206 98 90 109 116 90 75 74 74 77 52 41 79 95 103 104 103 102 107 97 96 94 96 96 98 100 101 101 101 101 100 96 93 90 88 85 82 78 75 73 72 71 69 63
306 223 235 243 249 204 110 107 112 93 108 108 83 76 77 70 63 89 104 102 102 97 97 93 98 97 94 92 92 92 92 95 96 97 97 96 93 91 89 87 84 81 76 75 73 70 68 67 62
225 239 256 241 247 341 112 110 109 109 114 116 96 71 67 78 87 92 103 112 103 95 94 92 92 94 93 92 94 92 90 91 92 94 94 93 92 90 86 83 80 77 73 72 71 69 65 64 63
234 221 229 227 139 68 101 123 131 132 117 94 109 93 82 66 84 105 113 112 105 100 95 92 88 93 94 93 93 91 89 87 87 88 88 87 87 85 79 76 74 72 69 68 68 65 61 62 64
243 239 209 181 128 103 108 128 145 133 119 110 110 102 92 81 103 112 113 108 104 98 95 94 87 90 92 91 91 90 89 87 85 83 82 81 79 78 75 73 73 73 70 66 65 62 60 62 67
222 229 215 183 136 126 130 138 146 122 115 116 116 111 99 112 115 113 111 107 103 99 98 101 94 87 86 88 91 90 87 84 81 81 79 78 76 73 71 68 68 68 66 63 63 60 62 64 67
246 224 211 168 150 148 140 145 154 135 129 127 127 117 125 128 120 118 114 109 102 100 99 99 105 103 98 89 85 84 81 80 77 74 74 75 72 68 66 64 61 63 61 62 60 61 64 67 65
283 218 182 175 167 145 137 133 121 129 122 128 137 134 142 143 135 127 120 114 109 104 100 100 98 98 102 98 84 76 74 72 75 72 67 74 97 98 90 91 68 60 65 67 65 65 70 73 71
252 224 198 173 171 142 148 143 124 122 132 130 121 122 136 140 143 138 132 127 120 114 111 107 103 100 95 89 90 89 89 78 100 104 96 135 91 84 100 62 61 63 68 71 71 74 82 100 108
234 218 152 101 143 143 153 146 138 147 145 135 123 124 134 147 153 149 142 136 132 126 118 113 112 109 99 86 86 78 80 76 66 66 67 67 63 59 60 97 84 80 84 108 93 105 156 210 117
206 144 111 109 117 143 148 138 142 153 148 148 146 145 149 155 155 151 144 137 129 126 124 121 116 111 101 92 73 67 74 80 79 68 72 66 72 82 72 86 117 107 124 108 115 154 97 89 78
141 91 104 112 120 144 145 139 138 139 118 139 147 148 154 159 157 154 148 141 141 138 131 127 124 117 102 89 77 78 83 75 74 69 57 61 65 62 66 67 68 79 81 77 79 80 93 92 95
143 110 96 110 116 119 127 130 123 114 120 136 144 151 157 158 155 152 147 146 147 144 144 134 128 114 107 92 77 85 83 75 82 65 51 54 58 62 66 70 72 69 74 89 81 91 91 87 89
121 120 113 114 120 130 132 125 131 125 137 144 152 158 160 158 159 156 157 155 153 155 149 140 139 126 120 112 98 84 87 92 79 70 54 54 62 61 59 71 69 67 68 74 89 91 95 91 87
138 138 133 125 127 142 153 153 151 143 151 152 159 160 159 160 163 166 162 157 153 148 146 138 137 131 119 99 88 91 91 85 78 68 58 63 56 56 57 60 71 69 83 98 89 96 98 98 97
175 187 184 154 154 169 208 186 153 156 163 161 162 161 163 165 170 169 165 161 152 148 144 140 147 138 118 108 104 99 90 81 76 71 58 58 56 55 59 58 69 70 83 99 100 105 104 97 94
199 201 184 162 171 179 208 188 161 167 173 169 169 168 170 169 174 172 170 165 159 156 154 150 144 136 125 116 108 100 92 81 76 70 60 54 53 55 66 58 64 78 82 87 102 103 103 100 98
192 193 185 180 172 195 204 198 170 177 182 178 176 177 179 177 178 176 173 164 161 160 159 151 142 144 134 128 122 113 98 89 78 71 65 52 49 54 67 75 74 78 86 88 97 102 99 103 108
195 195 191 179 176 207 211 203 186 182 188 187 185 188 189 186 181 179 177 173 170 168 167 161 161 157 152 145 140 127 111 103 89 72 61 58 56 59 67 68 72 69 82 85 104 114 120 115 115
198 201 199 177 164 215 217 217 200 192 198 197 195 196 195 186 184 185 187 185 181 177 178 174 171 169 164 152 136 123 114 102 90 87 75 61 60 59 66 73 82 82 86 91 97 109 118 115 118
213 219 210 196 177 206 227 229 208 201 203 204 208 206 202 194 191 188 190 188 185 183 184 180 175 173 168 158 143 134 125 126 118 102 81 63 61 62 62 65 71 75 85 92 95 110 118 127 111
221 217 222 211 216 218 218 244 215 202 203 207 209 208 205 200 198 192 189 188 190 187 183 184 176 177 170 165 166 155 143 123 106 103 99 90 74 69 63 67 67 75 74 86 91 91 100 115 117
201 145 206 225 239 245 226 246 222 195 209 210 208 207 205 199 197 194 192 190 189 183 181 184 173 173 172 174 165 169 150 130 124 122 113 101 83 71 68 66 70 73 74 74 76 79 67 76 61
153 157 169 208 236 242 225 235 238 201 212 207 204 203 203 199 195 193 190 185 183 180 177 176 173 173 172 176 176 173 155 152 142 135 122 112 101 86 78 71 71 73 74 74 75 76 74 63 62
196 204 209 210 214 229 196 236 249 217 218 212 205 201 198 197 192 190 187 186 184 181 180 178 176 175 176 179 180 174 169 160 152 141 131 122 108 95 84 80 76 73 73 75 77 78 74 79 72
205 225 239 246 236 214 204 235 226 201 227 214 207 202 195 194 193 191 189 187 186 184 181 182 181 179 178 181 180 176 167 163 146 142 135 125 108 97 93 87 82 80 79 81 76 72 73 76 80
201 221 265 274 271 257 219 225 224 184 179 181 189 193 194 193 192 191 190 189 187 185 182 183 180 180 180 181 176 174 173 165 155 151 140 129 120 112 109 101 96 88 83 79 82 75 78 78 77
255 216 213 235 251 243 231 228 197 164 170 173 183 190 190 189 190 190 188 188 189 186 181 181 182 181 180 178 175 171 172 167 162 158 151 143 133 124 122 117 109 105 101 92 81 82 78 89 83
195 210 225 235 258 273 252 125 75 173 178 183 188 190 189 187 187 187 186 186 185 182 181 181 182 180 178 178 175 171 170 169 168 165 157 156 150 147 135 122 116 110 108 105 96 88 91 93 96
228 228 223 234 233 249 272 301 91 213 237 213 205 191 187 186 185 184 183 181 179 180 182 184 182 180 179 178 176 175 168 172 172 168 168 169 159 152 144 133 126 114 106 103 104 101 97 91 89
Height
1522 1522 1522 1523 1521 1517 1520 1521 1519 1522 1525 1528 1529 1529 1530 1532 1534 1542 1543 1542 1543 1544 1545 1545 1545 1545 1546 1546 1547 1547 1547 1548 1548 1548 1548 1548 1549 1549 1549 1549 1549 1549 1549 1549 1550 1550 1550 1550 1549
1522 1522 1524 1523 1517 1520 1523 1521 1522 1524 1528 1530 1531 1531 1532 1536 1539 1541 1542 1543 1545 1546 1546 1546 1546 1546 1547 1547 1547 1547 1548 1548 1548 1548 1549 1549 1549 1549 1549 1549 1549 1550 1550 1550 1550 1550 1550 1550 1550
1522 1522 1524 1519 1517 1520 1523 1522 1524 1528 1530 1531 1532 1534 1536 1540 1542 1543 1544 1544 1546 1547 1547 1546 1547 1547 1547 1548 1548 1548 1548 1549 1549 1549 1549 1549 1550 1550 1550 1550 1550 1550 1550 1550 1550 1550 1550 1550 1550
1523 1524 1523 1519 1520 1520 1521 1523 1526 1529 1531 1532 1533 1536 1539 1542 1543 1544 1545 1546 1547 1548 1549 1548 1548 1548 1548 1548 1549 1549 1549 1549 1550 1550 1550 1550 1550 1551 1550 1550 1550 1550 1550 1550 1550 1550 1550 1550 1550
1523 1523 1519 1520 1521 1522 1523 1526 1527 1528 1531 1533 1534 1537 1542 1544 1545 1546 1547 1548 1549 1550 1550 1550 1549 1550 1550 1550 1550 1550 1551 1551 1551 1551 1551 1551 1551 1551 1551 1551 1551 1551 1551 1551 1551 1550 1551 1551 1551
1524 1520 1520 1522 1523 1524 1526 1528 1528 1529 1532 1535 1536 1538 1544 1546 1547 1548 1549 1550 1550 1551 1552 1551 1551 1551 1551 1552 1552 1552 1552 1552 1552 1552 1552 1552 1552 1552 1552 1552 1552 1552 1552 1552 1551 1551 1551 1551 1551
1523 1519 1518 1519 1524 1525 1527 1529 1529 1530 1533 1536 1538 1540 1544 1547 1549 1550 1550 1551 1552 1553 1553 1554 1554 1554 1553 1554 1554 1554 1554 1553 1553 1553 1553 1553 1553 1553 1553 1553 1553 1553 1553 1552 1552 1552 1552 1552 1552
1523 1520 1520 1520 1523 1525 1528 1530 1532 1532 1535 1538 1539 1540 1544 1548 1549 1551 1552 1553 1554 1554 1555 1556 1556 1556 1557 1557 1556 1555 1555 1555 1555 1555 1555 1555 1555 1555 1554 1554 1554 1554 1553 1553 1553 1553 1553 1553 1553
1523 1521 1520 1521 1522 1524 1528 1530 1533 1534 1536 1538 1539 1541 1544 1548 1550 1552 1553 1555 1555 1556 1557 1558 1558 1558 1559 1559 1558 1558 1557 1557 1557 1557 1556 1556 1558 1557 1557 1556 1555 1555 1555 1554 1554 1554 1554 1554 1555
1522 1520 1520 1521 1522 1524 1528 1530 1532 1534 1536 1538 1541 1543 1546 1548 1551 1553 1555 1556 1557 1558 1559 1560 1560 1560 1561 1560 1560 1560 1560 1559 1559 1559 1559 1559 1558 1558 1558 1556 1556 1556 1556 1556 1555 1555 1556 1556 1557
1521 1520 1522 1523 1525 1526 1528 1531 1533 1534 1535 1538 1541 1544 1547 1550 1552 1554 1556 1557 1558 1559 1560 1561 1561 1562 1562 1562 1562 1562 1561 1561 1561 1560 1560 1560 1560 1559 1559 1559 1558 1558 1558 1558 1557 1558 1558 1558 1558
1522 1523 1524 1525 1527 1527 1529 1531 1533 1535 1537 1539 1542 1544 1547 1550 1553 1555 1556 1558 1559 1560 1561 1562 1563 1563 1563 1563 1563 1563 1563 1563 1562 1562 1562 1562 1561 1561 1560 1560 1560 1559 1559 1559 1559 1559 1559 1560 1560
1522 1525 1526 1527 1528 1529 1530 1532 1534 1537 1538 1540 1543 1546 1548 1551 1554 1556 1557 1559 1560 1561 1562 1563 1563 1564 1564 1564 1564 1564 1564 1564 1563 1562 1563 1562 1562 1562 1561 1561 1560 1561 1560 1560 1560 1561 1561 1561 1561
1525 1525 1527 1528 1529 1530 1531 1533 1535 1537 1539 1542 1544 1546 1549 1552 1554 1556 1558 1559 1561 1562 1563 1564 1564 1565 1565 1565 1565 1565 1565 1564 1565 1564 1564 1564 1563 1563 1562 1562 1561 1561 1561 1561 1562 1562 1562 1562 1562
1526 1526 1527 1529 1529 1531 1532 1534 1535 1538 1540 1542 1544 1547 1550 1552 1555 1557 1558 1560 1561 1563 1564 1564 1565 1566 1566 1566 1566 1566 1566 1566 1566 1565 1565 1565 1564 1564 1563 1563 1563 1562 1562 1563 1563 1563 1563 1564 1564
1524 1525 1528 1529 1530 1531 1533 1535 1535 1538 1540 1542 1544 1547 1550 1552 1555 1557 1559 1560 1562 1563 1564 1565 1565 1566 1567 1567 1567 1567 1567 1567 1567 1566 1566 1566 1565 1565 1564 1564 1564 1563 1563 1564 1564 1564 1565 1565 1565
1523 1525 1527 1529 1529 1530 1531 1533 1535 1538 1540 1542 1544 1547 1549 1552 1555 1557 1559 1560 1562 1563 1565 1566 1566 1567 1567 1567 1567 1567 1568 1567 1567 1567 1567 1567 1566 1566 1565 1564 1564 1565 1565 1565 1565 1566 1566 1567 1567
1524 1523 1526 1527 1527 1529 1530 1531 1534 1537 1539 1541 1543 1546 1549 1551 1554 1556 1558 1560 1562 1563 1565 1566 1567 1568 1568 1568 1569 1569 1569 1569 1568 1568 1568 1567 1567 1567 1566 1566 1566 1566 1566 1566 1566 1566 1567 1567 1568
1521 1523 1525 1525 1526 1528 1528 1529 1531 1535 1538 1540 1542 1544 1547 1550 1553 1555 1558 1559 1561 1563 1565 1566 1567 1568 1568 1569 1570 1570 1570 1570 1570 1569 1569 1568 1568 1568 1567 1567 1567 1567 1567 1567 1568 1568 1568 1569 1569
1522 1524 1525 1526 1526 1526 1527 1527 1528 1532 1534 1537 1539 1542 1544 1548 1551 1554 1557 1559 1561 1562 1564 1566 1567 1568 1569 1570 1571 1571 1571 1571 1570 1570 1570 1570 1570 1569 1569 1569 1569 1568 1568 1569 1569 1569 1570 1570 1570
1523 1523 1524 1526 1527 1526 1528 1528 1526 1529 1532 1535 1538 1540 1542 1545 1549 1552 1555 1557 1560 1562 1564 1566 1567 1568 1569 1570 1570 1571 1571 1572 1572 1572 1571 1571 1571 1570 1570 1570 1570 1570 1570 1570 1570 1570 1570 1571 1571
1524 1522 1524 1526 1528 1528 1529 1532 1522 1522 1528 1531 1534 1537 1540 1543 1546 1550 1553 1556 1558 1561 1563 1565 1567 1568 1569 1570 1571 1572 1572 1573 1573 1573 1573 1572 1572 1572 1571 1571 1571 1571 1571 1571 1571 1571 1572 1572 1572
1522 1523 1524 1525 1526 1528 1526 1528 1519 1519 1524 1525 1528 1532 1536 1540 1543 1547 1550 1553 1557 1559 1562 1564 1566 1568 1569 1570 1571 1572 1573 1573 1574 1574 1574 1574 1573 1573 1573 1572 1572 1572 1572 1572 1572 1572 1572 1573 1573
1524 1525 1525 1526 1526 1532 1523 1525 1520 1514 1515 1517 1522 1527 1532 1536 1540 1544 1548 1551 1555 1558 1560 1563 1565 1567 1568 1570 1571 1572 1573 1574 1574 1575 1575 1575 1575 1575 1574 1574 1574 1574 1574 1573 1573 1573 1573 1573 1573
1523 1526 1532 1533 1533 1527 1519 1522 1516 1507 1509 1512 1516 1521 1527 1532 1537 1541 1545 1548 1552 1556 1559 1561 1564 1566 1568 1570 1571 1572 1574 1575 1575 1576 1576 1577 1577 1576 1576 1575 1575 1575 1575 1575 1574 1574 1574 1574 1574
1520 1521 1530 1535 1531 1523 1520 1518 1508 1506 1509 1511 1514 1518 1522 1528 1533 1537 1542 1546 1550 1553 1557 1560 1563 1565 1567 1569 1571 1573 1574 1575 1576 1576 1577 1577 1578 1577 1577 1577 1577 1576 1576 1576 1575 1576 1575 1575 1575
1519 1520 1518 1523 1523 1525 1516 1509 1504 1504 1506 1509 1512 1515 1519 1524 1529 1534 1539 1543 1547 1551 1555 1558 1561 1564 1566 1569 1571 1572 1574 1575 1576 1577 1577 1578 1578 1578 1578 1578 1578 1577 1577 1577 1577 1576 1576 1576 1576
1518 1517 1522 1525 1530 1528 1517 1511 1507 1504 1505 1507 1510 1512 1516 1521 1526 1531 1536 1540 1545 1549 1553 1556 1560 1563 1565 1568 1570 1572 1573 1575 1576 1577 1578 1579 1579 1579 1579 1579 1579 1579 1578 1578 1578 1577 1577 1577 1577
1521 1520 1519 1520 1521 1524 1523 1512 1499 1501 1503 1504 1507 1510 1513 1518 1523 1527 1533 1538 1542 1546 1551 1554 1558 1561 1564 1567 1569 1571 1573 1574 1576 1577 1578 1579 1579 1580 1580 1580 1580 1580 1580 1579 1579 1579 1578 1578 1578
1513 1513 1515 1523 1521 1518 1518 1513 1499 1501 1502 1504 1506 1508 1512 1516 1520 1525 1530 1535 1539 1543 1548 1552 1556 1559 1562 1565 1568 1570 1572 1574 1575 1577 1578 1579 1580 1580 1580 1580 1581 1581 1581 1580 1580 1580 1580 1580 1580